Location: Spring Creek
(38.2870°N, 100.2160°W)
Time: 09:17:31
(UTC+00:00)

Cosmos 968 Rocket - Pass Details

Date: 08 May 2021
Orbit: 741 x 770 km, 74.0° (Epoch: 21 June)

Event Time Altitude Azimuth Distance (km) Brightness Sun altitude
Rises 03:08:20 0° 207° (SSW) 3,226 6.6 -16.1°
Reaches altitude 10° 03:10:44 10° 211° (SSW) 2,302 5.9 -16.4°
Maximum altitude 03:15:54 59° 291° (WNW) 885 4.1 -17.2°
Drops below altitude 10° 03:21:04 10° 11° (N) 2,305 6.4 -18.0°
Sets 03:23:29 0° 15° (NNE) 3,231 7.1 -18.3°
